TimeCDT,TemperatureF,Dew PointF,Humidity,Sea Level PressureIn,VisibilityMPH,Wind Direction,Wind SpeedMPH,Gust SpeedMPH,PrecipitationIn,Events,Conditions,WindDirDegrees,DateUTC
12:52 AM,39.2,30.2,70,30.07,10.0,ENE,5.8,-,N/A,,Clear,60,2014-04-23 05:52:00
1:52 AM,41.0,32.0,70,30.10,10.0,East,10.4,-,N/A,,Clear,100,2014-04-23 06:52:00
2:52 AM,37.9,30.0,73,30.10,10.0,ESE,8.1,-,N/A,,Clear,110,2014-04-23 07:52:00
3:52 AM,35.1,30.0,82,30.12,10.0,East,4.6,-,N/A,,Clear,80,2014-04-23 08:52:00
4:52 AM,34.0,28.9,82,30.13,10.0,East,6.9,-,N/A,,Clear,80,2014-04-23 09:52:00
5:52 AM,33.1,28.9,85,30.15,10.0,ESE,4.6,-,N/A,,Clear,110,2014-04-23 10:52:00
6:52 AM,37.9,30.0,73,30.17,10.0,East,5.8,-,N/A,,Mostly Cloudy,90,2014-04-23 11:52:00
7:52 AM,41.0,30.9,67,30.17,10.0,ESE,9.2,-,N/A,,Clear,110,2014-04-23 12:52:00
8:52 AM,45.0,30.9,58,30.18,10.0,ESE,11.5,-,N/A,,Scattered Clouds,110,2014-04-23 13:52:00
9:52 AM,46.9,30.0,52,30.19,10.0,ESE,12.7,-,N/A,,Partly Cloudy,120,2014-04-23 14:52:00
10:52 AM,48.0,28.9,48,30.17,10.0,East,12.7,-,N/A,,Overcast,100,2014-04-23 15:52:00
11:52 AM,50.0,28.4,43,30.16,10.0,ESE,8.1,-,N/A,,Mostly Cloudy,120,2014-04-23 16:52:00
12:52 PM,54.0,28.9,38,30.12,10.0,SE,15.0,-,N/A,,Scattered Clouds,130,2014-04-23 17:52:00
1:52 PM,57.0,28.0,33,30.10,10.0,ESE,10.4,-,N/A,,Partly Cloudy,120,2014-04-23 18:52:00
2:52 PM,55.9,25.0,30,30.09,10.0,ESE,11.5,17.3,N/A,,Overcast,110,2014-04-23 19:52:00
3:52 PM,55.9,28.0,34,30.09,10.0,ESE,9.2,-,N/A,,Overcast,110,2014-04-23 20:52:00
4:52 PM,54.0,34.0,47,30.06,10.0,East,11.5,-,0.00,Rain,Light Rain,100,2014-04-23 21:52:00
5:52 PM,50.0,39.0,66,30.03,9.0,East,10.4,-,0.04,Rain,Light Rain,100,2014-04-23 22:52:00
6:52 PM,48.0,41.0,77,30.02,10.0,ESE,8.1,-,0.05,Rain,Light Rain,120,2014-04-23 23:52:00
7:52 PM,48.9,39.0,69,30.00,10.0,SE,9.2,-,0.00,,Overcast,130,2014-04-24 00:52:00
8:52 PM,48.0,39.9,74,29.98,10.0,ESE,10.4,-,N/A,,Overcast,110,2014-04-24 01:52:00
9:52 PM,48.0,39.9,74,29.99,10.0,SE,6.9,-,0.01,,Partly Cloudy,130,2014-04-24 02:52:00
10:52 PM,48.0,39.0,71,29.97,10.0,East,10.4,-,N/A,,Clear,100,2014-04-24 03:52:00
11:52 PM,46.9,39.0,74,29.94,10.0,East,17.3,-,N/A,,Clear,100,2014-04-24 04:52:00